FENGYUN 1C DEB

Satellite information

Favourite Embed

Satellite Type and Status

DEBRISIN ORBIT

Key statistics

Satellite FENGYUN 1C DEB at a glance.

Uptime

9495

Days in orbit

Revolutions

≈ 14.3

Per day

Orbit

SSO

Sun Synchronous Orbit

Inclination

99.6

Latest

Satellite identification and parameters

Extended collection of information and parameters for FENGYUN 1C DEB.

Object identification

Identified? True

Debris? True

Object name: FENGYUN 1C DEB

International designator: 1999-025BTB

Object number (NORAD): 31415

Object ID (CCSDS): 31415

Country: PEOPLES REPUBLIC OF CHINA (PRC)

Current information (Y/N): Y

RCS size: SMALL

Orbital parameters

Period: 100.77 minutes

Inclination: 99.621 deg

SMA: 7173.223 km

Apoapsis: 841.226 km

Periapsis: 748.951 km

RAAN: 56.7455 deg

Eccentricy: 0.0064319

Argument of periapsis: 340.4962 deg

Mean anomaly: 19.3757 deg

Mean motion: 14.28996696 rev/day

Mean motion (dot): 0.00004011 rev/day2

B* drag term: 0.0015703 1/REarth

Two-line elements (TLE)

Creation date: May 8, 2025, 3:01 a.m.

Reference frame: TEME

Reference center: EARTH

Epoch: May 7, 2025, 2:12 p.m. UTC

TLE line 0: 0 FENGYUN 1C DEB

TLE line 1: 1 31415U 99025BTB 25127.59232609 .00004011 00000-0 15703-2 0 9996

TLE line 2: 2 31415 99.6210 56.7455 0064319 340.4962 19.3757 14.28996696596996

Live tracking on map

Real-time ground track for satellite FENGYUN 1C DEB.

In-orbit conjunctions

A list of the most updated potential collisions computed for object FENGYUN 1C DEB.

Target Orbit TCA Probability of collision Miss distance Type
CZ-6A DEB LEO 2025-03-20 23:38:56 0.0001605966 257.0 (m) DEBRIS
FENGYUN 1C DEB SSO 2024-11-11 09:08:11 0.0001283341 614.0 (m) DEBRIS
SL-14 DEB LEO 2024-11-09 17:26:04 0.0001980875 465.0 (m) DEBRIS
COSMOS 1110 LEO 2024-09-18 04:49:32 0.001816514 53.0 (m) PAYLOAD
DMSP 5D-2 F10 (USA 68) SSO 2024-06-29 04:41:21 0.001442296 187.0 (m) PAYLOAD

Associated space launch

Chinese polar orbiting meteorological satellite

FENGYUN 1C DEB was lifted into orbit during the mission ‘Long March 4B | Feng Yun 1C’, on board a Long March 4B space rocket.

The launch took place on May 10, 1999, 1:33 a.m. from Launch Complex 7.

For more information about the launch, click the button.

Launch to space Long March 4B | Feng Yun 1C
Long March 4B | Feng Yun 1C

Agency: N/A

Status: Launch Successful

Launch date: May 10, 1999, 1:33 a.m. UTC

Rocket: Long March 4B

Launch pad: Launch Complex 7

Location: Taiyuan Satellite Launch Center, People's Republic of China

...

Latest news about this satellite

There are no fresh news available about this satellite. Check back as we update our databases every day.


Newsletter sign-up

Weekly statistics, charts and insights to help you stay on top of the space industry.